RH
15 14 14 13 12 12 10 9 10 10 10 10 10 9 9 9 9 9 10 10 11 11 11 11 11 11 11 11 11 11 11 11 11 10 10 9 10 10 11 12 14 14 14 14 13 11 11 12 12 13 13 13 13 12 13 13 13 13 17 18 17 18 17 17 21 20 19 18 17 17 18 20 21 24 25 26 29 29 28 28 28 28 28 31 33 37 38 36
15 14 13 13 13 12 10 8 10 10 10 10 10 9 9 9 9 9 10 10 10 10 10 11 11 11 11 11 11 11 11 11 10 9 9 9 9 10 11 12 13 14 14 13 12 11 11 11 12 13 13 12 12 12 13 13 13 15 18 19 18 18 16 18 21 19 19 18 17 17 19 21 23 26 28 29 32 30 29 29 29 31 32 33 37 39 37 36
14 13 14 13 13 13 11 9 10 10 10 10 9 9 9 9 9 9 9 10 10 10 10 11 11 11 11 11 11 11 10 10 10 9 9 9 8 9 11 12 13 13 13 13 12 12 11 11 12 12 12 12 12 12 13 14 14 15 16 18 18 17 17 19 19 18 19 19 18 18 21 25 26 28 29 29 31 30 30 32 32 34 34 36 40 38 35 36
14 14 14 13 13 13 11 9 10 11 11 10 10 9 8 9 9 9 9 10 9 10 10 10 11 11 11 11 11 10 9 11 13 12 10 10 9 10 12 12 13 13 12 13 12 12 12 11 11 11 12 12 12 12 13 13 14 15 15 16 16 15 18 19 18 18 19 19 18 20 23 26 26 28 29 29 31 32 32 33 32 34 35 36 38 36 34 35
14 14 13 13 14 14 13 12 12 12 12 11 10 10 9 9 9 9 10 10 10 10 10 10 10 10 10 9 8 8 11 15 16 14 12 11 10 11 12 12 12 12 11 12 13 12 11 11 10 11 12 12 12 11 12 13 14 15 15 14 14 16 19 19 17 18 19 19 19 21 23 24 25 28 28 28 30 31 30 31 31 31 32 32 33 33 33 34
14 14 13 13 14 16 17 16 15 14 13 12 11 10 10 10 9 10 9 10 10 10 10 10 10 9 9 8 7 9 14 17 16 14 12 11 11 11 12 12 12 12 11 11 11 11 10 10 10 11 11 12 11 11 11 13 13 14 14 13 13 16 20 18 17 18 19 20 20 21 22 22 25 28 28 26 27 27 26 28 29 28 28 29 30 31 32 32
14 14 14 15 17 20 22 21 19 16 15 14 12 11 10 10 10 10 10 10 9 9 9 9 8 9 8 7 10 11 13 15 16 14 13 12 11 10 11 11 11 10 10 10 10 10 9 10 11 11 11 11 11 11 12 13 13 13 14 12 14 17 19 17 16 18 19 21 21 21 22 21 24 26 27 25 24 25 25 26 28 28 28 28 29 29 30 30
15 17 19 20 21 22 23 23 21 18 17 16 15 12 11 10 11 10 10 10 9 9 9 8 8 8 7 9 12 13 12 14 15 13 12 12 10 8 8 8 8 8 8 8 8 8 9 10 12 12 12 13 12 12 13 14 15 14 14 13 14 15 17 16 16 18 18 21 23 22 22 21 21 23 25 26 24 25 26 26 27 28 29 29 29 29 28 29
20 22 22 22 21 21 22 22 22 19 18 17 16 14 12 10 10 10 10 10 10 10 9 9 9 8 8 10 14 16 15 14 13 11 11 10 8 7 7 7 7 6 7 7 7 8 10 12 13 13 14 14 14 14 14 16 17 16 15 15 14 14 16 16 16 17 18 21 23 23 23 22 21 21 23 25 24 25 26 27 27 27 28 29 28 28 27 27
23 23 22 21 21 20 20 21 21 20 18 17 16 15 13 11 10 10 10 11 11 12 11 10 8 8 8 10 15 18 16 14 13 10 9 9 8 8 8 7 7 6 6 7 8 11 13 13 14 15 15 16 17 16 15 16 17 16 15 16 15 14 15 16 16 17 19 22 24 24 23 22 21 20 22 24 24 25 25 27 28 28 27 25 25 25 25 24
22 21 21 21 21 20 20 21 21 21 19 17 15 14 12 11 10 10 10 10 11 12 11 10 9 9 9 12 18 19 15 14 14 11 9 10 9 9 9 8 8 8 8 9 11 14 15 15 16 16 17 17 17 17 16 16 16 15 15 16 15 15 15 16 17 18 20 22 24 24 22 19 18 18 20 23 25 25 26 28 28 26 25 24 24 25 24 23
20 20 21 21 21 20 20 21 21 22 21 19 17 15 12 11 11 11 11 11 11 11 11 10 10 10 11 14 18 18 15 15 14 12 11 12 12 12 11 11 11 11 12 13 13 15 15 15 15 16 17 17 17 17 16 17 16 15 16 15 17 18 16 16 17 17 19 22 23 22 22 21 19 17 20 24 25 27 28 29 26 24 23 22 22 23 23 23
19 18 20 20 21 21 20 21 21 22 22 22 21 18 15 13 12 12 12 12 11 11 12 11 12 12 13 16 17 16 16 16 14 13 13 12 13 13 11 11 12 13 14 14 15 15 15 15 16 16 16 16 17 17 16 16 15 15 16 16 18 19 17 16 17 17 18 20 19 20 24 27 24 18 21 27 27 27 29 29 26 23 22 20 21 22 22 22
18 18 18 18 19 20 20 21 21 22 22 22 23 22 19 16 14 13 13 13 12 12 13 12 13 13 15 17 17 15 16 16 15 14 13 13 13 13 12 12 12 13 15 15 15 16 15 16 16 16 16 17 17 17 18 17 17 17 16 19 20 18 19 18 17 17 17 19 20 23 26 27 25 19 20 25 25 26 28 30 26 22 21 21 22 22 22 21
16 18 18 17 17 17 19 20 21 22 21 22 22 22 22 20 17 15 14 14 13 13 13 14 15 16 18 20 18 18 18 17 16 14 14 14 13 13 13 13 13 14 15 16 16 16 16 16 16 16 17 18 18 18 20 20 21 21 17 22 25 20 21 20 17 18 17 19 21 22 23 22 21 18 19 22 23 23 24 25 24 21 21 23 23 23 21 21
14 16 17 16 16 15 16 17 19 20 21 21 21 21 23 23 21 18 16 14 14 15 13 14 16 17 21 21 19 20 20 18 16 15 15 15 14 15 14 14 14 14 15 16 16 16 17 16 17 18 16 17 20 21 22 24 26 26 20 21 24 21 21 22 18 19 19 19 19 18 19 19 20 19 20 23 23 23 23 23 22 21 23 24 23 22 21 22
14 15 16 16 15 14 14 15 17 18 19 21 21 22 24 25 24 20 18 16 15 15 15 16 15 17 21 20 19 21 20 20 17 16 16 15 14 15 15 14 15 14 15 15 16 17 17 17 17 17 18 21 24 24 22 26 28 28 27 26 25 23 21 23 21 20 19 19 18 16 17 18 20 21 21 23 23 24 24 23 23 23 24 24 23 22 22 22
14 15 16 15 15 15 15 15 15 16 18 20 20 22 24 24 25 22 18 18 18 16 17 17 16 20 23 20 21 22 20 20 19 17 16 15 15 14 15 15 15 15 15 16 16 16 16 18 19 19 24 26 25 25 24 26 25 25 28 28 28 27 24 25 25 23 20 19 18 18 18 18 20 22 20 21 23 25 26 25 24 25 25 25 24 23 23 23
14 15 15 15 15 15 15 14 14 15 17 19 19 22 23 22 25 25 21 19 19 18 18 17 17 22 25 22 23 23 21 21 21 19 16 15 15 14 15 14 15 15 15 18 18 17 17 18 20 20 23 23 24 25 25 26 25 25 29 28 25 25 25 26 26 26 24 22 21 21 21 21 21 23 22 19 21 24 26 27 26 27 28 28 27 26 25 25
14 14 13 14 14 14 14 14 14 15 16 17 17 21 22 22 25 27 25 22 20 19 19 20 20 23 24 23 24 24 23 23 22 20 17 16 16 15 16 14 15 15 17 20 20 19 19 20 22 22 22 23 25 28 27 26 27 28 30 30 27 25 25 26 26 29 29 24 24 25 25 25 24 26 25 21 20 24 27 31 33 33 32 32 31 30 28 27
13 13 12 12 13 13 13 13 14 15 16 17 17 19 20 20 22 24 22 22 22 19 20 23 23 24 23 22 23 24 25 24 23 22 19 18 18 17 17 16 15 17 21 22 20 21 21 21 24 24 24 25 29 33 32 29 30 30 30 28 28 29 29 29 31 35 34 27 27 29 27 27 29 30 29 24 21 24 29 36 39 37 35 34 33 33 32 31
13 12 12 11 12 12 13 14 15 16 17 16 16 18 19 18 20 21 21 21 22 20 20 22 22 24 23 23 23 23 25 26 24 23 23 21 21 20 19 19 18 20 24 21 21 24 24 25 27 27 28 29 33 37 33 33 35 34 32 30 31 33 32 34 38 41 38 33 32 33 29 30 34 33 31 29 25 25 28 32 36 35 34 33 34 35 36 35
13 12 12 12 12 12 13 14 15 16 16 15 15 16 17 18 20 22 23 23 21 21 22 22 22 23 22 24 24 22 24 26 24 24 23 23 24 23 23 23 22 23 24 23 23 24 26 32 34 33 35 33 34 37 33 33 37 37 34 31 35 37 35 37 41 42 42 38 35 35 33 34 37 34 32 30 27 26 26 28 30 32 33 33 34 36 37 37
14 13 12 12 12 13 14 14 14 14 13 13 14 14 15 18 20 22 24 26 26 27 26 24 24 25 26 27 26 25 24 25 25 24 24 24 25 25 24 24 23 24 25 26 28 26 27 34 36 36 40 37 35 38 36 32 35 39 38 36 39 40 38 40 41 42 46 45 41 37 37 40 40 36 33 31 29 29 30 29 31 33 34 33 34 35 36 35
13 12 12 12 13 14 14 13 13 12 12 13 13 14 15 16 18 21 27 33 36 36 32 28 29 30 30 30 29 28 26 25 25 25 25 25 24 24 23 23 22 25 28 29 30 27 27 31 32 32 38 39 37 39 43 39 39 43 45 43 42 42 42 43 44 45 47 47 44 39 41 48 45 39 37 35 34 35 35 34 34 36 37 35 35 35 34 33
13 12 10 10 12 14 13 12 12 12 12 13 12 13 14 15 17 19 30 43 45 41 35 33 35 35 34 34 33 32 31 30 28 27 28 27 26 24 22 22 21 24 30 30 30 30 30 33 34 32 35 38 36 38 45 46 43 43 45 46 45 44 43 43 44 44 44 45 47 46 48 50 48 43 41 39 37 38 39 39 39 40 41 38 35 33 34 34
11 10 10 10 9 12 12 10 12 13 13 12 12 13 12 15 19 21 34 46 46 44 42 39 39 38 37 37 37 36 36 34 31 30 32 31 28 25 24 25 21 20 25 26 27 30 30 33 36 35 36 37 36 39 45 47 44 43 45 47 46 43 41 43 42 42 44 43 47 53 50 46 46 44 44 43 40 38 37 40 43 44 45 43 37 32 32 33
9 9 9 9 9 10 11 12 14 15 15 13 13 12 10 16 26 32 40 43 42 46 47 43 41 39 39 39 38 38 36 34 32 33 34 31 28 27 29 29 25 22 23 23 26 30 29 28 32 36 36 37 39 42 46 46 43 44 46 45 43 41 41 43 41 42 46 43 44 52 48 42 47 47 45 44 39 36 35 36 40 41 42 41 36 30 30 30
8 9 9 10 11 12 12 15 16 16 15 13 11 10 10 20 33 39 42 42 41 44 43 43 42 39 39 40 39 37 35 34 34 34 33 32 31 31 31 30 28 26 25 24 27 30 28 26 30 35 35 38 41 45 47 43 39 41 43 41 39 42 44 42 39 41 46 44 45 51 46 41 47 49 46 41 36 35 34 32 32 34 34 34 32 28 27 28
7 9 8 11 15 16 15 17 16 14 13 11 9 9 14 29 41 41 41 41 40 39 38 39 39 38 38 38 37 36 33 32 33 32 31 31 31 31 30 30 29 30 33 33 29 29 29 27 32 33 33 37 39 41 42 39 37 36 37 37 36 40 43 44 45 41 40 44 47 48 45 42 47 51 47 42 38 34 30 30 31 30 30 31 29 26 25 27
8 9 9 10 14 15 15 14 12 11 11 10 10 13 21 37 46 45 39 37 36 35 34 36 37 36 34 32 34 34 31 30 30 31 31 31 30 29 28 30 31 33 41 39 30 31 30 27 31 31 30 33 32 33 35 36 39 36 35 36 35 37 39 41 45 39 37 44 43 40 40 39 43 46 43 40 38 33 30 30 31 31 31 31 30 28 26 28
9 10 10 11 13 13 12 11 10 11 11 12 12 16 28 38 41 42 37 31 33 35 34 35 33 30 27 26 28 29 27 27 27 27 28 29 28 28 27 30 33 34 40 41 34 35 33 30 32 30 29 30 29 33 34 35 38 36 35 38 37 39 40 42 46 42 41 43 36 35 36 34 38 40 37 36 34 32 31 30 30 32 32 30 29 28 28 30
12 11 11 14 17 16 15 13 12 11 12 15 14 18 32 39 36 38 37 31 29 30 31 32 29 27 24 23 23 23 22 22 23 23 24 25 26 27 27 31 32 30 35 40 39 38 38 39 37 31 30 30 29 34 36 36 39 36 36 40 41 44 45 49 52 45 40 40 36 38 35 33 38 37 35 37 36 35 33 31 31 33 32 31 30 30 30 31
13 14 14 16 19 18 18 17 14 12 13 16 17 18 26 33 36 36 34 31 28 26 27 29 28 27 24 21 20 19 20 22 21 22 23 23 23 26 28 30 31 31 34 38 38 37 37 40 41 37 37 36 35 39 41 42 44 43 43 42 42 47 48 49 49 41 38 39 38 38 36 37 39 36 37 37 36 38 37 35 34 34 34 34 34 35 35 34
13 16 16 17 19 18 19 19 16 14 13 16 21 23 23 29 37 37 32 30 28 26 28 30 30 29 26 25 24 20 20 21 22 24 25 24 24 27 31 31 31 33 35 36 38 38 34 36 39 37 37 39 41 44 45 45 47 49 48 44 43 46 45 44 45 44 43 43 43 41 42 46 46 42 43 40 37 38 38 37 37 37 37 36 37 40 40 41
13 17 17 17 19 19 20 21 17 14 14 20 25 27 31 34 36 33 29 27 25 26 29 31 32 32 30 31 31 25 22 23 23 25 27 25 26 30 31 30 30 31 33 36 41 41 36 37 38 33 32 35 38 41 42 42 48 52 50 47 47 46 44 44 46 50 51 48 49 47 44 49 49 46 46 43 42 41 38 39 41 42 43 42 42 44 43 44
13 15 17 19 20 21 22 22 18 12 15 24 27 28 35 37 31 27 25 23 23 24 27 29 29 30 29 30 32 26 21 24 25 25 28 29 29 31 31 30 30 30 33 35 38 40 40 42 42 36 34 36 37 39 39 38 43 49 49 50 50 48 51 51 48 54 58 54 55 51 46 48 49 48 47 43 42 43 42 42 43 44 45 46 46 45 45 45
12 14 17 20 21 22 23 22 17 13 18 29 32 33 37 35 27 24 22 22 24 24 27 29 27 26 25 24 26 23 19 23 25 25 28 30 29 30 32 33 32 34 37 37 38 42 42 42 45 43 39 41 43 42 43 43 42 46 48 48 48 51 57 55 51 56 60 59 61 58 51 48 46 46 45 42 41 41 40 40 40 40 41 42 43 42 43 43
11 15 19 19 18 20 21 19 16 16 21 30 37 39 37 35 30 23 21 22 24 25 27 27 25 24 24 22 22 22 19 20 22 23 26 28 28 29 32 33 35 38 41 42 45 49 47 43 45 47 42 41 47 50 51 52 49 49 50 48 49 53 55 52 51 52 53 58 63 57 49 45 43 43 42 40 40 38 36 37 38 39 37 37 39 38 38 38
11 17 21 19 18 18 17 15 16 19 23 29 37 40 34 32 29 23 21 22 24 25 27 27 25 26 26 24 23 22 19 18 19 19 22 24 25 27 28 30 32 35 39 44 48 53 53 48 49 52 46 40 46 51 54 56 55 55 55 53 54 54 53 51 49 49 49 56 63 58 49 46 45 44 41 39 40 39 36 37 38 38 37 37 38 37 37 38
12 18 21 18 17 16 14 14 19 25 29 30 33 33 28 27 27 24 23 23 24 25 26 28 28 28 28 27 26 23 19 18 18 18 19 20 21 23 24 26 27 28 33 39 44 47 51 52 53 54 50 43 44 46 47 50 54 56 54 53 53 55 55 53 53 55 52 52 58 58 53 50 49 49 46 43 44 42 39 37 36 36 36 37 39 39 39 40
15 17 18 17 16 15 14 18 23 27 28 26 25 24 24 25 24 24 24 25 27 27 27 28 29 30 31 29 26 22 19 20 20 19 19 20 20 22 23 23 24 25 27 32 36 40 45 50 50 49 49 47 46 45 44 45 48 51 52 53 54 55 55 54 57 62 59 54 55 56 54 54 55 55 51 47 46 44 39 37 35 33 32 35 39 41 41 42
16 15 15 16 16 14 15 23 29 28 26 23 20 20 21 22 22 23 24 24 25 25 25 26 27 27 26 24 22 21 20 21 21 20 20 19 19 21 23 24 24 25 27 29 31 34 40 44 43 44 49 46 41 42 45 44 43 44 46 50 52 50 49 52 58 60 57 55 58 59 57 58 60 60 55 47 45 44 40 37 36 33 31 33 36 40 42 44
14 14 14 15 15 14 17 23 27 29 28 24 21 21 20 20 21 21 20 20 21 21 21 21 21 22 22 22 22 21 20 22 21 21 22 21 21 23 25 25 26 28 28 30 33 33 36 42 42 42 45 43 40 41 40 40 40 37 37 40 42 41 41 45 49 50 49 50 55 59 59 57 57 60 58 51 47 45 42 38 36 35 33 33 35 38 40 41
14 14 14 14 13 14 19 22 22 25 27 24 23 24 21 19 19 19 20 19 18 19 20 19 19 20 23 24 23 23 23 22 23 24 24 25 26 27 28 29 31 34 35 37 37 34 38 45 46 44 46 45 45 41 37 37 37 35 34 35 36 36 36 38 40 41 44 48 48 50 53 54 55 56 56 54 51 47 43 39 36 35 35 35 35 35 36 36
16 18 18 17 15 15 18 21 21 25 26 25 27 28 24 23 22 21 21 20 19 19 20 21 21 23 26 27 27 28 29 27 28 30 32 33 35 35 34 34 36 38 41 41 39 41 47 49 47 48 50 47 43 39 39 39 36 33 34 35 36 37 37 39 40 40 43 46 42 41 44 48 52 53 51 51 50 48 47 43 37 35 36 36 36 35 35 35
18 21 22 21 20 20 23 24 25 29 30 28 31 31 28 29 27 25 24 24 23 25 26 28 28 30 32 33 33 35 37 39 40 39 42 44 46 43 40 39 39 40 41 40 40 46 51 50 50 51 49 47 45 43 44 43 39 37 38 38 39 41 39 39 41 42 46 46 41 41 44 42 44 47 47 47 47 49 50 45 40 38 38 37 37 37 36 35
19 22 24 24 24 27 29 28 30 33 32 31 33 32 29 29 30 29 29 29 29 32 35 37 37 38 39 39 41 42 44 48 49 50 50 50 50 49 45 44 43 40 41 43 44 47 49 50 52 52 50 50 49 47 49 49 46 44 44 43 44 44 41 40 42 45 49 48 43 44 48 44 41 45 46 44 42 43 43 40 39 39 39 37 36 35 34 32
22 25 27 27 27 30 30 29 31 34 33 32 34 33 30 30 32 33 32 33 38 41 43 45 45 44 45 47 49 51 50 50 50 53 53 51 51 50 48 47 46 42 42 46 48 49 50 54 56 52 51 52 51 50 52 52 50 49 48 48 48 49 48 44 43 45 47 47 44 45 48 46 43 45 45 42 39 39 39 39 39 40 40 38 36 34 33 32
27 31 32 32 33 33 33 32 33 36 35 34 35 35 34 36 38 40 39 39 44 47 48 50 49 48 49 53 54 53 52 52 52 51 51 52 53 53 50 49 48 46 45 47 49 50 52 58 60 56 55 56 54 55 54 53 54 52 50 52 54 55 54 48 44 45 46 45 44 44 44 43 43 43 42 38 37 38 39 38 38 38 38 38 36 35 35 34
33 37 37 39 40 39 37 35 36 40 40 39 42 44 44 46 47 48 48 46 46 49 51 52 52 52 54 56 56 54 53 55 56 52 50 52 53 53 51 50 48 47 49 50 51 52 54 59 62 60 59 58 56 56 56 55 56 53 51 54 55 56 55 49 45 46 46 44 43 42 40 41 43 43 41 40 41 39 39 38 37 37 38 38 38 37 36 34
36 37 38 42 44 44 45 44 45 48 47 45 49 51 51 52 52 52 53 50 48 49 50 51 53 54 55 55 56 55 52 52 51 48 47 49 50 49 48 49 48 49 52 53 53 56 58 58 61 64 62 58 56 56 56 56 56 52 50 51 51 52 52 50 47 50 49 45 43 42 42 42 45 46 45 46 47 45 44 42 41 41 40 39 38 36 34 32